This is the latest recevied weather packets stored in our database for station/object KA1AL. If no packets are shown the sender has not sent any weather packets the latest 10 day(s).
| Time | Temp. | Humidity | Pressure | Rain* | Wind** | Luminosity | Snow |
|---|---|---|---|---|---|---|---|
| 1777642057 | 6.11° C | 88% | 1006.1 hPa | 0 mm | - | 640 W/m² | - |
| 1777641754 | 5.56° C | 89% | 1006 hPa | 0 mm | - | 281 W/m² | - |
| 1777641454 | 5.56° C | 90% | 1006.1 hPa | 0 mm | - | 471 W/m² | - |
| 1777641150 | 5.56° C | 91% | 1006 hPa | 0 mm | - | 336 W/m² | - |
| 1777640846 | 5° C | 91% | 1005.8 hPa | 0 mm | - | 300 W/m² | - |
| 1777640543 | 4.44° C | 92% | 1006 hPa | 0 mm | - | 268 W/m² | - |
| 1777640240 | 4.44° C | 92% | 1005.9 hPa | 0 mm | - | 200 W/m² | - |
| 1777639936 | 4.44° C | 93% | 1006.1 hPa | 0 mm | - | 163 W/m² | - |
| 1777639633 | 4.44° C | 93% | 1006.1 hPa | 0 mm | - | 129 W/m² | - |
| 1777639331 | 4.44° C | 92% | 1005.8 hPa | 0 mm | - | 124 W/m² | - |
| 1777639026 | 5° C | 92% | 1005.7 hPa | 0 mm | - | 142 W/m² | - |
| 1777638723 | 5° C | 94% | 1005.7 hPa | 0 mm | - | 180 W/m² | - |
| 1777638419 | 5° C | 92% | 1005.6 hPa | 0 mm | - | 195 W/m² | - |
| 1777638115 | 4.44° C | 93% | 1005.8 hPa | 0 mm | - | 202 W/m² | - |
| 1777637812 | 4.44° C | 94% | 1006 hPa | 0 mm | - | 178 W/m² | - |
| 1777637508 | 4.44° C | 95% | 1005.8 hPa | 0 mm | - | 147 W/m² | - |
| 1777637206 | 4.44° C | 94% | 1005.9 hPa | 0 mm | - | 137 W/m² | - |
| 1777636903 | 4.44° C | 95% | 1005.8 hPa | 0 mm | - | 130 W/m² | - |
| 1777636598 | 4.44° C | 96% | 1005.8 hPa | 0 mm | - | 139 W/m² | - |
| 1777636294 | 5° C | 96% | 1005.4 hPa | 0 mm | - | 139 W/m² | - |
| 1777635989 | 5° C | 97% | 1005.7 hPa | 0 mm | - | 164 W/m² | - |
| 1777635685 | 5° C | 97% | 1005.6 hPa | 0 mm | - | 156 W/m² | - |
| 1777635382 | 5° C | 98% | 1005.4 hPa | 0 mm | - | 147 W/m² | - |
| 1777635079 | 5° C | 97% | 1005.2 hPa | 0 mm | - | 146 W/m² | - |
| 1777634775 | 5° C | 98% | 1005.4 hPa | 0 mm | - | 149 W/m² | - |
* Rain latest hour (hover to see other rain measurements)
** Current wind speed in m/s (hover to see current wind gust speed)